TimeEST,TemperatureF,Dew PointF,Humidity,Sea Level PressureIn,VisibilityMPH,Wind Direction,Wind SpeedMPH,Gust SpeedMPH,PrecipitationIn,Events,Conditions,WindDirDegrees,DateUTC
12:53 AM,34.0,25.0,70,30.17,10.0,Calm,Calm,-,N/A,,Clear,0,2012-11-06 05:53:00
1:53 AM,30.9,25.0,79,30.18,10.0,Calm,Calm,-,N/A,,Clear,0,2012-11-06 06:53:00
2:53 AM,30.0,25.0,82,30.17,10.0,Calm,Calm,-,N/A,,Clear,0,2012-11-06 07:53:00
3:53 AM,28.9,25.0,85,30.17,10.0,Calm,Calm,-,N/A,,Clear,0,2012-11-06 08:53:00
4:53 AM,30.9,25.0,79,30.17,10.0,Calm,Calm,-,N/A,,Clear,0,2012-11-06 09:53:00
5:53 AM,30.0,25.0,82,30.17,10.0,Calm,Calm,-,N/A,,Clear,0,2012-11-06 10:53:00
7:53 AM,32.0,27.0,82,30.20,10.0,Calm,Calm,-,N/A,,Clear,0,2012-11-06 12:53:00
8:53 AM,37.0,27.0,67,30.21,10.0,Calm,Calm,-,N/A,,Clear,0,2012-11-06 13:53:00
9:53 AM,39.9,25.0,55,30.19,10.0,East,4.6,-,N/A,,Clear,80,2012-11-06 14:53:00
10:53 AM,41.0,24.1,51,30.17,10.0,Variable,3.5,-,N/A,,Clear,0,2012-11-06 15:53:00
11:53 AM,42.1,24.1,49,30.13,10.0,NE,3.5,-,N/A,,Clear,50,2012-11-06 16:53:00
12:53 PM,44.1,25.0,47,30.10,10.0,East,5.8,-,N/A,,Clear,100,2012-11-06 17:53:00
1:53 PM,44.1,26.1,49,30.08,10.0,ENE,5.8,-,N/A,,Clear,70,2012-11-06 18:53:00
2:53 PM,43.0,26.1,51,30.07,10.0,East,3.5,-,N/A,,Clear,100,2012-11-06 19:53:00
3:53 PM,43.0,27.0,53,30.06,10.0,NE,5.8,-,N/A,,Clear,50,2012-11-06 20:53:00
4:53 PM,42.1,26.1,53,30.06,10.0,East,3.5,-,N/A,,Mostly Cloudy,80,2012-11-06 21:53:00
5:53 PM,39.9,28.0,63,30.04,10.0,Calm,Calm,-,N/A,,Mostly Cloudy,0,2012-11-06 22:53:00
6:53 PM,39.0,27.0,62,30.04,10.0,North,3.5,-,N/A,,Mostly Cloudy,350,2012-11-06 23:53:00
7:53 PM,37.9,28.0,68,30.04,10.0,NNW,4.6,-,N/A,,Mostly Cloudy,340,2012-11-07 00:53:00
8:53 PM,39.0,28.0,65,30.05,10.0,Calm,Calm,-,N/A,,Mostly Cloudy,0,2012-11-07 01:53:00
9:53 PM,37.0,28.0,70,30.04,10.0,Calm,Calm,-,N/A,,Mostly Cloudy,0,2012-11-07 02:53:00
10:53 PM,37.9,28.0,68,30.02,10.0,Calm,Calm,-,N/A,,Overcast,0,2012-11-07 03:53:00
11:53 PM,37.9,28.0,68,29.99,10.0,Calm,Calm,-,N/A,,Scattered Clouds,0,2012-11-07 04:53:00